www.pogodaiklimat.ru

Погода и климат >> Архив погоды >> Парагвай >> Mariscal Estigar


ПОГОДА в Mariscal Estigar

  • Прогноз погоды в Mariscal Estigar
  • Монитор погоды в Mariscal Estigar
  • Климат города

АРХИВ ПОГОДЫ в Mariscal Estigar

Время (UTC), дата Ветер
(напр.,м/с)
 
Видим.   Явления Облачность Т
(С)
Тd
(С)
f
(%)
Тe
(С)
Тes
(С)
Комфортность P
(гПа)
Po
(гПа)
Тmin
(С)
Tmax
(С)
R
(мм)
R24
(мм)
S
(см)
09 13.11 штиль 0 20 км ясно +17.4 +10.9 66 +17 +17 1010.5 990.8
12 13.11 В 3 20 км 1/0
[Ci fib]
+25.6 +12.3 44 +27 +33 жарко 1011.9 992.8 +15.5
15 13.11 ЮВ 3 20 км 3/0
[Ci fib]
+35.0 +10.9 23 +34 +52 опасность
солнечного
удара
1010.8 992.2
00 14.11 ЮВ 2 20 км ясно +29.0 +11.7 34 +30 +30 жарко 1006.6 987.8 +38.6
09 14.11 штиль 0 20 км 4/0
[Cs]
+21.2 +17.9 81 +25 +25 комфорт 1008.3 988.9
12 14.11 СВ 2 20 км 4/0
[Cs]
+27.2 +11.4 37 +28 +34 жарко 1009.2 990.1 +16.5
15 14.11 С 2 20 км 3/0
[Ci fib]
+36.2 +10.2 21 +35 +55 опасность
солнечного
удара
1006.5 988.1
18 14.11 С 3 20 км 3/0
[Cs]
+40.0 +9.3 16 +38 +53 опасность
солнечного
удара
1003.2 985.1
21 14.11 С 3 20 км 3/0
[Cs]
+39.8 +5.7 13 +37 +40 очень
жарко
1001.4 983.2
00 15.11 СВ 2 20 км ясно +31.6 +9.2 25 +31 +31 жарко 1003.3 984.7 +41.0
09 15.11 СВ 2 20 км 4/0
[Cs]
+25.0 +12.8 47 +27 +27 жарко 1003.3 984.3
12 15.11 С 4 20 км 3/0
[Cs]
+29.6 +13.5 37 +31 +35 жарко 1004.7 985.9 +24.2
15 15.11 З 8 20 км 3/0
[Ci fib]
+38.8 +10.5 18 +37 +41 очень
жарко
1003.4 985.1
18 15.11 С 8 20 км 3/0
[Ci fib]
+40.6 +11.6 18 +40 +42 очень
жарко
999.6 981.6
21 15.11 С 6 20 км 3/0
[Ci fib]
+40.4 +11.8 18 +39 +40 очень
жарко
997.8 979.8
00 16.11 СВ 4 20 км ясно +36.4 +14.9 28 +38 +38 очень
душно
999.5 981.3 +42.0
09 16.11 С 2 20 км 4/0
[Cs]
+28.6 +20.1 60 +35 +35 очень
душно
1004.5 985.3
12 16.11 С 3 20 км 3/0
[Cs]
+32.4 +21.5 53 +41 +46 опасность
перегрева
1007.2 988.6 +28.5
15 16.11 З 5 20 км 8/8 900 м
[Cu Sc]
+37.0 +18.9 35 +42 +44 опасность
перегрева
1006.6 988.3
18 16.11 ЮЗ 8 20 км 6/5 1200 м
[Cu med, cong As trans]
+35.4 +15.6 31 +37 +39 очень
душно
1004.6 986.1
21 16.11 Ю 6 20 км 5/5 1200 м
[Cu Sc]
+34.6 +11.7 25 +34 +35 очень
жарко
1003.0 984.5
09 17.11 штиль 0 20 км ясно +22.4 +18.3 78 +28 +28 душно 1005.6 986.3
12 17.11 ЮВ 2 20 км 10/10 360 м
[Sc]
+24.6 +20.4 77 +30 +30 очень
душно
1006.1 987.0 +22.4
15 17.11 В 2 20 км 10/10 360 м
[Sc]
+27.2 +19.3 62 +33 +33 очень
душно
1005.6 986.6
18 17.11 СВ 5 20 км 9/9 750 м
[Cu Sc]
+33.4 +20.8 48 +41 +42 опасность
перегрева
1000.6 982.1
21 17.11 С 2 20 км 8/8 900 м
[Cu Sc]
+34.6 +18.5 39 +39 +40 очень
душно
998.0 979.7
00 18.11 В 4 20 км 10/10 360 м
[Sc]
+32.6 +21.3 51 +40 +40 очень
душно
1000.6 982.1 +35.0
09 18.11 ЮВ 4 20 км 10/10 360 м
[Sc]
+25.6 +21.9 80 +33 +33 очень
душно
1003.3 984.4
12 18.11 Ю 3 20 км гроза без осадков {ливн. осадки} 9/9 360 м
[Cb cap]
+23.6 +22.8 95 +31 +32 очень
душно
1006.6 986.4 +23.0 3
15 18.11 ЮВ 6 20 км 8/8 800 м
[Cu Sc]
+30.2 +19.3 52 +36 +37 очень
душно
1006.8 988.0
18 18.11 Ю 10 20 км 6/6 900 м
[Cu Sc]
+32.6 +15.6 36 +35 +35 душно 1005.2 986.6
09 19.11 штиль 0 20 км 4/0 2000 м
[Ac cast]
+19.2 +12.9 67 +20 +20 1011.3 991.7
12 19.11 Ю 4 20 км 3/0 2000 м
[Ac cast]
+23.6 +9.2 40 +24 +28 комфорт 1012.4 993.1 +18.8
15 19.11 ЮВ 2 20 км 3/0
[Ci fib]
+28.4 +9.4 30 +28 +48 жарко 1011.6 992.6
18 19.11 В 3 20 км 3/0
[Ci fib]
+32.4 +8.0 22 +31 +46 жарко 1008.3 989.7
21 19.11 В 2 20 км 5/0
[Cs]
+33.6 +7.5 20 +32 +35 жарко 1006.6 988.1

 

Местоположение метеостанции Mariscal Estigar (Парагвай): широта -22.01 долгота -60.60 высота над уровнем моря 172 м.

В архиве по умолчанию представлена погода в Mariscal Estigar за последнюю неделю. Архивные данные за месяц целиком и за предыдущие месяцы, начиная с января 2011 года, Вы можете получить, выбрав интересующий диапазон дат из раскрывающегося списка и нажав кнопку "Ввод!".

Внимание! Время в таблицах - всемирное. Для получения местного времени необходимо прибавить поправку, которая в Mariscal Estigar равна -4 ч.

Смотрите также архив погоды в соседних городах и на ближайших метеорологических станциях:

Погода в Prats-Gil (Парагвай) (120 км)
Погода в Pozo Colorado (Парагвай) (232 км)
Погода в Puerto Casado (Парагвай) (284 км)
Погода в Las Lomitas (Аргентина) (299 км)
Погода в Villamontes (Боливия) (307 км)
Погода в Yacuiba (Боливия) (315 км)
Погода в Tartagal (Аргентина) (336 км)
Погода в Gral. Bruguez (Парагвай) (355 км)
Погода в Concepcion (Парагвай) (373 км)
Погода в Camiri (Боливия) (378 км)

Пояснения к столбцам:

Ветер - указаны скорость ветра в м/с - средняя за 10 мин, порывы в срок и между сроками (в фигурных скобках) и направление, откуда дует ветер: С - северный, СВ - северо-восточный, В - восточный, ЮВ - юго-восточный, Ю - южный, ЮЗ - юго-западный, З - западный, СЗ - северо-западный.
Видимость - горизонтальная дальность видимости в метрах или километрах. При видимости от 1 до 10 км при отсутствии осадков обычно наблюдается дымка, при ухудшении видимости до 1 км и менее - туман. В сухую погоду видимость может ухудшаться дымом, пылью или мглою.
Явления - указаны атмосферные явления, наблюдавшиеся в срок или в последний час перед сроком; фигурными скобками обозначены явления, наблюдавшиеся между сроками (за 1-3 часа до срока); квадратными скобками обозначены град или гололедные отложения с указанием их диаметра в мм.
Облачность - указаны через наклонную черту общая и нижняя облачность в баллах и высота нижней границы облаков в метрах; квадратными скобками обозначены формы облаков: Ci - перистые, Cs - перисто-слоистые, Cc - перисто-кучевые, Ac - высококучевые, As - высокослоистые, Sc - слоисто-кучевые, Ns - слоисто-дождевые, Cu - кучевые, Cb - кучево-дождевые. Подробнее классификацию облаков см. в Атласе облаков (PDF).
T - Температура воздуха - температура, измеренная на высоте 2 м над землей.
Td - Температура точки росы - температура, при понижении до которой содержащийся в воздухе водяной пар достигнет насыщения.
f - Относительная влажность воздуха - влажноcть воздуха, измеренная на высоте 2 м над землей.
Te - Эффективная температура - температура, которую ощущает одетый по сезону человек в тени. Характеристика душности погоды. При расчете учитывается влияние влажности воздуха и скорости ветра на теплоощущения человека.
Tes - Эффективная температура на солнце - температура, которую ощущает человек, с поправкой на солнечный нагрев. Характеристика знойности погоды. Зависит от высоты солнца над горизонтом, облачности и скорости ветра. Ночью, в пасмурную погоду, а также при ветре 12 м/с и более поправка равна нулю.
P - Атмосферное давление - приведенное к уровню моря атмосферное давление.
Po - Атмосферное давление - измеренное на уровне метеостанции атмосферное давление.
Tmin - Минимальная температура - минимум температуры воздуха на высоте 2 м над землей.
Tmax - Максимальная температура - максимум температуры воздуха на высоте 2 м над землей.
R - Количество осадков - Количество выпавших осадков за период времени, мм. При наведении курсора мыши на число - период времени, за который выпало указанное количество осадков.
R24 - Количество осадков - Количество выпавших осадков за 24 часа, мм.
S - Снежный покров - Высота снежного покрова, см. При наведении курсора мыши на число - состояние снежного покрова и степень покрытия местности в баллах.